FENGYUN 1C DEB *, 47042

Orbit data source: Space-Track

FENGYUN 1C DEB *, 47042 is space debris in SSO originally from a launch on Mon, 10 May 1999 UTC launched from the Taiyaun Space Center, China (TSC). Fengyun 1C debris stems from the Chinese weather satellite Fengyun-1C, which was intentionally destroyed by a Chinese anti-satellite missile in 2007. This event dramatically increased the amount of space debris, with thousands of trackable fragments posing hazards to satellites and human spaceflight. The Fengyun 1C debris cloud has become a focal point in discussions about space sustainability and the need for international regulations to prevent the creation of new debris.

Loading next visibility...
Identifier
47042, 1999-025FBU
Orbit
SSO
Country
Flag of CNCN / PRC
Related business
Manufacturer
Unknown
Mission
Spacecraft
Bus & Motor
Unknown
Mass
Unknown
Launch date (UTC)
1999-05-10 (27 years ago)
Launch vehicle
Unknown
Launch site
Taiyaun Space Center, China (TSC)
Object type
Payload
Rocket body
Debris
Shape & HBR
Unknown shape, 0.1 m
Radar Cross Section
Small (<0.1 m²)

Expand to show TLE details & history
Last TLE update: 4 days ago

TLE from 4 days ago
0 FENGYUN 1C DEB *
1 47042U 99025FBU 26169.55149600  .00000284  00000-0  14447-3 0  9993
2 47042  98.9887  76.0492 0053520 214.1404 269.7655 14.23052479651927
Epoch: 2026-06-18T13:14Z
TLE epoch observation values (Epoch: 2026-06-18T13:14:09.254Z)
Latitude
55.7511°
Longitude
164.07936°
Altitude
824.645 km
Speed
7.446 km/s
True Right ascension
17h 57m 38s
True Declination
55° 35' 33"
Sunlit
Object was in daylight at epoch
Visualization orbit readout
Latitude
Unknown
Longitude
Unknown
Altitude
Unknown
Speed
Unknown
Apparent Right ascension
Unknown
Apparent Declination
Unknown
Sunlit
N/A
Visualization observer readout
Local Sidereal Time
21:33:25
Azimuth
Unknown
Elevation
Unknown
Doppler factor
Unknown
Orbital elements
Apogee altitude
850.699 km
Perigee altitude
773.733 km
Semi-major axis
7,190.353 km
Eccentricity
0.00535
Inclination
98.9887°
RAAN
76.0492°
Arg. of periapsis
214.1404°
True anomaly
269.15224°
Mean anomaly
269.7655°
Eccentric anomaly
269.45887°
Mean motion
3.55974 °/min
Orbital period
101.13 mins
BSTAR
0.00014447
Loading maneuver chart data...
Computing Atmospheric mass density...
Loading historical data...
Loading historical data...
Loading historical data...
Loading historical data...
Loading historical data...
Loading historical data...
Loading historical data...

Documentation

Showing up to 5 results
|